Location: Newark
(36.0797°N, 3.9744°E)
Time: 00:00:58
(UTC+00:00)

Vanguard 2 - Pass Details

Date: 15 December 2019
Orbit: 553 x 2938 km, 32.9° (Epoch: 21 January)

Event Time Altitude Azimuth Distance (km) Brightness Sun altitude
Exits shadow 01:14:08 36° 92° (E) 4,006 11.1 -65.8°
Drops below altitude 10° 01:22:35 10° 88° (E) 5,726 12.2 -64.2°
Sets 01:26:52 0° 87° (E) 6,644 12.7 -63.4°
